Location: Unspecified
(0.0000°N, 0.0000°E)
Time: 20:17:53
(UTC+02:00)

Cosmos 1538 Rocket - Visible Passes

Search period start: 01 October 2014 00:00
Search period end: 11 October 2014 00:00
Orbit: 752 x 794 km, 74.0° (Epoch: 01 October)

Date Brightness Start Highest point End Pass type
(mag) Time Alt. Az. Time Alt. Az. Time Alt. Az.
04 Oct 5.8 21:28:59 10° N 21:30:23 19° N 21:30:23 19° N visible
05 Oct 4.8 20:54:12 10° NNE 20:57:59 28° ENE 20:57:59 28° ENE visible
05 Oct 6.7 22:37:25 10° WNW 22:38:34 13° WNW 22:38:34 13° WNW visible
06 Oct 5.5 20:20:25 10° NE 20:23:10 14° ENE 20:25:53 10° ESE visible
06 Oct 5.6 22:00:30 10° NW 22:05:02 31° WSW 22:09:34 10° SSW visible
07 Oct 4.4 21:24:28 10° NNW 21:29:35 63° WSW 21:34:42 10° S visible
08 Oct 3.9 20:49:00 10° N 20:54:09 65° ENE 20:59:16 10° SSE visible
09 Oct 4.6 20:14:05 10° NNE 20:18:42 32° ENE 20:23:16 10° SE visible
09 Oct 6.9 21:58:02 10° WNW 22:00:34 14° WSW 22:03:06 10° SW visible
10 Oct 6.1 21:20:46 10° NW 21:25:06 27° WSW 21:29:26 10° SSW visible
